Location: C?r?st?u
(46.1667°N, 22.6500°E)
Time: 08:37:07
(UTC+00:00)

Daily predictions for brighter satellites

Satellite Brightness Start Highest point End
(mag) Time Altitude Azimuth Time Altitude Azimuth Time Altitude Azimuth
Cosmos 44 3.2 15:43:31 10° SSW 15:48:00 82° SE 15:52:49 10° NE
Okean O Rocket 1.6 15:46:29 10° SSE 15:50:50 82° ENE 15:55:13 10° NNW
Cosmos 2228 2.9 15:47:19 10° S 15:51:32 74° E 15:55:50 10° NNE
Cosmos 1340 3.4 15:48:31 10° N 15:51:57 32° ENE 15:55:22 10° SE
Cosmos 1726 Rocket 3.6 15:47:54 10° S 15:52:09 55° E 15:56:27 10° NNE
Aureole 3 3.6 15:51:18 10° SSE 15:53:55 26° E 15:56:28 10° NNE
CORIOLIS 4.1 15:48:43 10° SSE 15:54:02 77° ENE 15:59:26 10° NNW
CZ-4 R/B 2.8 15:51:38 10° ESE 15:54:05 16° ENE 15:56:31 10° NNE
Timation 2 Rocket 4.2 15:47:51 10° NNW 15:54:31 84° ENE 16:01:22 10° SSE
Cosmos 1980 Rocket 3.9 15:53:37 10° ESE 15:55:04 11° E 15:56:31 10° E
Cosmos 2297 Rocket 2.3 15:50:29 10° NNW 15:56:06 57° ENE 16:01:39 10° SE
Cosmos 1758 Rocket 4.2 15:52:45 10° NNW 15:57:06 63° W 16:01:23 10° S
SL-4 R/B 2.7 15:54:19 10° WNW 15:57:34 34° N 16:00:57 10° ENE
In-Cosmos 22 Rocket 4.5 15:53:08 10° N 15:58:14 42° ENE 16:03:24 10° SE
Cosmos 1346 Rocket 4.0 15:55:48 10° NNE 15:58:54 21° ENE 16:01:58 10° ESE
Cosmos 2058 4.2 15:55:56 10° NNE 15:59:02 20° ENE 16:02:06 10° ESE
CZ-2C R/B 4.2 15:58:12 10° ESE 16:02:53 26° ENE 16:07:26 10° N
Cosmos 1553 Rocket 4.4 15:59:04 10° SSE 16:04:56 41° E 16:10:44 10° NNE
Cosmos 1606 Rocket 3.7 16:04:12 10° SSW 16:08:34 78° W 16:13:01 10° N
Cosmos 1315 Rocket 4.1 16:07:09 10° SE 16:09:59 19° E 16:12:50 10° NE
Meteor 2-10 Rocket 4.2 16:09:37 10° SSE 16:14:14 32° E 16:18:45 10° NNE
YAOGAN 6 4.4 16:11:24 10° SSW 16:14:49 37° W 16:18:17 10° NNW
FengYun 1-2 T 4.3 16:10:07 10° SSE 16:15:47 88° ENE 16:21:27 10° NNW
USA 305 3.2 16:14:26 10° NW 16:18:40 52° NNE 16:22:00 15° E
Cosmos 292 Rocket 4.2 16:14:33 10° SSW 16:19:19 65° WNW 16:24:09 10° NNE
SKYMED 2 3.8 16:15:17 10° NNE 16:19:28 45° E 16:23:38 10° S
Cosmos 1455 3.2 16:19:29 10° SE 16:22:35 24° E 16:25:44 10° NE
SeaSat 1 4.0 16:20:50 14° ENE 16:22:43 18° NE 16:25:55 10° N
NOSS 3-3 (A) 4.3 16:17:24 10° S 16:22:45 41° ESE 16:28:42 10° NE
NOSS 3-3 (C) 4.3 16:17:31 10° S 16:22:52 40° ESE 16:28:46 10° NE
H-2A R/B 3.1 16:19:17 10° ESE 16:23:47 27° ENE 16:28:17 10° N
Aureole 3 Rocket 3.3 16:20:10 10° S 16:24:15 72° E 16:30:01 10° NNE
SL-08 R/B 4.4 16:18:38 10° N 16:24:45 62° ENE 16:30:47 10° SSE
USA 306 3.1 16:20:57 10° NW 16:25:11 56° NNE 16:28:15 18° ESE
BREEZE-M R/B 4.0 16:17:51 10° W 16:27:03 60° N 16:28:59 20° ENE
Okean-O 3.0 16:23:48 10° SE 16:27:58 42° ENE 16:32:09 10° N
USA 215 4.2 16:22:49 12° ENE 16:28:01 35° N 16:33:46 10° WNW
SMAP 4.5 16:24:23 10° S 16:28:48 42° W 16:33:14 10° NNW
Cosmos 2219 3.4 16:23:50 10° NNW 16:29:37 80° WSW 16:35:21 10° SSE
MOS 1 Rocket 4.4 16:25:58 10° NE 16:29:47 23° E 16:33:45 10° SE
Cosmos 1745 Rocket 4.2 16:24:58 10° N 16:31:07 51° ENE 16:37:16 10° SSE
ATLAS 5 CENTAUR R/B 4.2 16:30:13 10° NNW 16:31:57 12° N 16:33:47 10° NNE
FALCON 9 DEB 3.9 16:30:33 10° W 16:33:39 41° NNW 16:35:34 20° NE
ATLAS 2AS CENTAUR R/B 3.7 16:27:55 10° NNW 16:34:41 32° NNE 16:38:50 19° ENE
FALCON 9 DEB 4.0 16:32:38 10° W 16:35:41 38° NNW 16:37:27 20° NE
Cosmos 2082 3.8 16:31:14 10° NNW 16:36:54 55° ENE 16:42:30 10° SE
Lacrosse 5 3.4 16:34:06 10° NW 16:38:13 24° N 16:41:00 16° NE
ARGOS 4.1 16:35:50 17° ESE 16:38:46 27° ENE 16:43:16 10° N
GEOS 3 Rocket 4.4 16:36:12 20° E 16:39:10 34° NE 16:43:59 10° NNW
Cosmos 44 Rocket 4.1 16:35:14 10° S 16:39:22 30° ESE 16:41:12 23° ENE
Cosmos 1656 3.7 16:35:45 10° SSW 16:41:19 90° WNW 16:47:01 10° NNE
Cosmos 968 Rocket 3.4 16:39:00 10° NNW 16:44:15 90° E 16:49:25 10° SSE
Cosmos 1408 2.6 16:41:08 10° N 16:44:44 54° ENE 16:48:20 10° SSE
Cosmos 2058 Rocket 3.6 16:41:58 10° SSW 16:46:26 64° W 16:50:56 10° N
FALCON 9 DEB 4.2 16:47:22 10° W 16:50:23 35° NNW 16:51:36 25° NNE
ERBS 4.5 16:48:26 10° NNW 16:50:23 15° N 16:50:49 14° NNE
Cosmos 2369 3.8 16:46:36 10° S 16:52:08 53° ESE 16:57:13 12° NE
Cosmos 1689 Rocket 2.2 16:50:29 10° N 16:53:22 70° WNW 16:56:13 10° SSW
IRS-1C Rocket 4.4 16:50:03 10° S 16:55:18 71° WSW 17:00:36 10° NNW
Cosmos 1076 Rocket 3.4 16:52:26 10° N 16:56:38 58° ENE 17:00:50 10° SSE
FALCON 9 DEB 3.6 16:56:11 10° NW 16:59:28 41° NNE 16:59:43 41° NE
CSL-04 Rocket 3.8 16:54:30 10° SE 16:59:51 52° ENE 17:05:10 10° N
FALCON 9 DEB 4.3 16:57:07 10° W 17:00:02 31° NNW 17:00:47 27° NNE
SL-08 ROCKET BODY 4.5 16:54:24 10° N 17:00:34 86° W 17:06:45 10° S
Cosmos 2227 Rocket 2.8 16:55:03 10° NNW 17:00:37 59° WSW 17:06:09 10° S
Cosmos 1939 Rocket 3.7 16:56:46 10° S 17:00:37 51° W 17:04:28 10° NNW
Cosmos 1709 Rocket 4.2 16:54:25 10° N 17:00:38 50° ENE 17:06:47 10° SSE
Cosmos 1892 3.2 16:56:52 10° NNW 17:00:43 61° W 17:04:31 10° S
CZ-4C R/B 3.8 16:56:06 10° NNW 17:01:51 28° NNE 17:04:27 23° ENE
Cosmos 2263 Rocket 3.1 16:57:51 10° N 17:02:48 29° NE 17:03:25 28° ENE
COSMO-SKYMED 1 3.2 17:03:16 10° N 17:07:33 57° WNW 17:11:48 10° SSW
USA 307 2.8 17:04:40 10° WNW 17:08:59 84° SSW 17:10:17 44° SE
CZ-4B R/B 4.3 17:10:55 10° NNW 17:13:01 16° WNW 17:15:04 10° WSW
USA 308 2.9 17:09:39 10° WNW 17:13:56 78° SW 17:15:04 48° SE
Cosmos 1697 Rocket 2.6 17:08:50 10° SSW 17:14:27 89° ESE 17:19:39 12° NNE
Cosmos 883 Rocket 4.4 17:08:45 10° S 17:14:47 62° E 17:20:49 10° NNE
Cosmos 1825 2.0 17:12:38 10° N 17:16:27 85° E 17:17:29 46° SSE
Helios 1A Rocket 3.8 17:13:53 10° S 17:17:53 51° W 17:21:54 10° NNW
YAOGAN 1 2.7 17:15:54 10° S 17:20:12 73° WSW 17:24:33 10° NNW
S3M 4.1 17:15:32 10° SSW 17:21:38 77° W 17:27:51 10° N
Cosmos 1503 Rocket 4.2 17:18:53 10° NNW 17:24:06 70° WSW 17:29:20 10° S
BREEZE-M TANK 2.6 17:18:24 10° W 17:24:28 65° SSW 17:24:59 56° SSE
Cosmos 2315 Rocket 3.9 17:19:17 10° S 17:25:21 61° E 17:31:27 10° NNE
Atlas Centaur 2 4.4 17:19:50 10° SW 17:26:26 26° S 17:30:05 20° SE
Cosmos 1812 Rocket 3.5 17:22:45 10° S 17:27:10 81° W 17:31:33 10° N
Meteor 2-1 Rocket 4.4 17:22:13 10° SSW 17:27:43 70° WNW 17:33:16 10° N
CZ-4 R/B 2.3 17:25:03 10° S 17:28:47 45° W 17:32:30 10° NNW
DMSP B5D1-3 4.4 17:25:13 10° NNE 17:30:25 84° ESE 17:35:34 10° SSW
Cosmos 2058 4.4 17:32:17 10° NNW 17:36:03 36° W 17:39:48 10° SSW
Cosmos 1354 Rocket 4.4 17:31:41 10° NNW 17:36:54 63° WSW 17:41:00 16° S
SL-4 R/B 2.6 17:33:50 10° WNW 17:36:33 48° NW 17:36:33 48° NW
Cosmos 1980 Rocket 2.0 17:32:26 10° SSW 17:38:03 76° ESE 17:39:22 53° NE
SJ-11-01 4.4 17:35:51 25° S 17:38:34 74° WSW 17:43:16 10° NNW
Cosmos 2151 4.0 17:35:02 10° N 17:37:30 34° N 17:37:30 34° N
Cosmos 2297 Rocket 4.4 17:35:16 10° NW 17:39:43 24° WSW 17:44:09 10° SSW
CZ-2C R/B 3.9 17:36:45 10° S 17:42:25 55° W 17:47:55 10° NNW
CSL-04 Debris 4.4 17:37:26 10° S 17:42:51 69° WSW 17:48:20 10° NNW
Timation 1 Rocket 4.4 17:37:25 10° NNW 17:43:27 74° WSW 17:46:16 33° SSE
Cosmos 1315 Rocket 4.3 17:42:36 10° SW 17:46:16 35° WNW 17:50:00 10° N
Ariane Rocket 4.3 17:53:41 29° N 17:53:41 29° N 17:56:18 10° N
Geosat 4.0 17:52:53 71° N 17:53:23 79° WNW 17:58:24 10° SW
Cosmos 2227 4.4 17:51:54 10° NNW 17:56:38 58° N 17:56:38 58° N
BREEZE-M R/B 4.0 17:53:10 10° WNW 17:57:51 85° SSW 17:59:00 65° ESE
Cosmos 1455 4.4 17:54:58 10° SW 17:58:08 25° WNW 18:01:19 10° NNW
USA 305 4.2 17:54:37 10° WNW 17:58:11 36° WSW 17:58:11 36° WSW
SeaSat 1 2.8 18:00:38 57° NNW 18:00:38 57° NNW 18:04:34 10° NNW
H-2A R/B 3.0 17:57:39 10° S 18:02:53 50° W 18:08:13 10° NNW
NOSS 3-4 (A) 3.7 17:57:26 10° NW 18:04:28 88° NE 18:05:39 67° SE
NOSS 3-4 (C) 3.7 17:57:32 10° NW 18:04:34 87° NE 18:05:43 67° SE
USA 306 4.5 18:01:12 10° WNW 18:04:25 31° WSW 18:04:25 31° WSW
DEBRIS 4.0 17:50:04 10° WSW 18:06:18 80° NNW 18:06:53 72° NE
MOS 1 Rocket 4.4 18:03:41 10° N 18:08:10 45° WNW 18:12:55 10° SW
USA 215 3.6 18:10:10 51° NNE 18:10:14 51° NNE 18:16:30 10° NW
Cosmos 2278 4.1 18:06:04 10° SW 18:11:41 60° WNW 18:12:45 51° NNW
GEOS 3 Rocket 4.1 18:17:20 60° WSW 18:17:20 60° WSW 18:22:18 10° NW
ARGOS 3.9 18:17:21 39° SW 18:18:45 49° W 18:24:01 10° NNW
ATLAS 5 CENTAUR R/B 4.3 18:16:08 10° NNW 18:17:34 13° N 18:17:34 13° N
Cosmos 44 Rocket 4.5 18:16:10 10° WSW 18:19:58 40° WNW 18:19:58 40° WNW
Meteor 2-3 Rocket 4.2 18:15:05 10° NNW 18:19:36 56° NNW 18:19:36 56° NNW
Lacrosse 5 3.4 18:17:25 10° NW 18:20:11 29° NNW 18:20:11 29° NNW
ATLAS 2AS CENTAUR R/B 2.7 18:19:03 10° NW 18:26:17 83° WNW 18:26:17 83° WNW
Cosmos 2263 Rocket 3.5 18:41:29 10° NW 18:45:07 37° NW 18:45:07 37° NW
CZ-4C R/B 3.3 18:44:19 10° NW 18:49:38 54° NNW 18:49:38 54° NNW
Cosmos 1980 Rocket 4.4 19:18:22 10° W 19:21:13 20° WNW 19:21:13 20° WNW
